Location: Litvinovka
(48.6667°N, 34.3500°E)
Time: 03:07:06
(UTC+00:00)

OBJECT-B - Pass Details

Date: 18 September 2020
Orbit: 421 x 433 km, 97.0° (Epoch: 09 October)

Event Time Altitude Azimuth Distance (km) Brightness Sun altitude
Exits shadow 19:01:25 11° 274° (W) 1,459 4.0 -29.7°
Drops below altitude 10° 19:02:11 10° 288° (WNW) 1,517 4.3 -29.8°
Sets 19:05:33 0° 327° (NNW) 2,393 5.7 -30.2°
